Location: Unspecified
(51.0000°N, 12.0000°E)
Time: 19:02:32
(UTC+02:00)

ISS - Pass Details

Date: 12 March 2018
Orbit: 402 x 409 km, 51.6° (Epoch: 16 August)

Event Time Altitude Azimuth Distance (km) Brightness Sun altitude
Exits shadow 05:23:41 18° 280° (W) 1,086 -2.2 -11.7°
Maximum altitude 05:26:01 82° 195° (SSW) 422 -3.8 -11.4°
Drops below altitude 10° 05:29:20 10° 107° (ESE) 1,478 0.2 -10.8°
Sets 05:31:25 0° 106° (ESE) 2,334 1.4 -10.5°
